HFM2502 NZAA-NZCH

Flight info

Callsign HFM2502
Flight time 1h 0m
Altitude 38000
Route IGBAT H384 NP H252 NS Y288 IPRAK
Aircraft A346/H-SDE2E3FGHIJ3J4J5M1RWXY/LB1D1

Departure

Time 2026-05-07 23:31
Airport Auckland International Airport (NZAA)

Arrival

Time 2026-05-08 00:32
Airport Christchurch International Airport (NZCH)
Time Latitude Longitude Altitude Speed Heading
2026-05-07 23:11 -37.00731 174.77673 30 ft 0 kts 154°
2026-05-07 23:23 -37.00731 174.77672 30 ft 1 kts 154°
2026-05-07 23:23 -37.00709 174.77662 31 ft 4 kts 169°
2026-05-07 23:23 -37.00686 174.77662 31 ft 4 kts 197°
2026-05-07 23:23 -37.00669 174.77674 30 ft 4 kts 230°
2026-05-07 23:24 -37.00657 174.77701 33 ft 4 kts 250°
2026-05-07 23:24 -37.00652 174.77721 32 ft 0 kts 252°
2026-05-07 23:26 -37.00653 174.77716 31 ft 5 kts 252°
2026-05-07 23:27 -37.00844 174.77586 28 ft 27 kts 160°
2026-05-07 23:27 -37.01023 174.77663 28 ft 28 kts 161°
2026-05-07 23:27 -37.01192 174.77675 28 ft 23 kts 201°
2026-05-07 23:28 -37.01306 174.77553 30 ft 22 kts 246°
2026-05-07 23:28 -37.01364 174.77359 31 ft 25 kts 251°
2026-05-07 23:28 -37.01423 174.77157 31 ft 25 kts 235°
2026-05-07 23:28 -37.01489 174.77103 30 ft 0 kts 194°
2026-05-07 23:30 -37.01510 174.77098 30 ft 9 kts 191°
2026-05-07 23:30 -37.01598 174.77113 30 ft 14 kts 130°
2026-05-07 23:30 -37.01591 174.77213 31 ft 15 kts 69°
2026-05-07 23:30 -37.01481 174.77615 33 ft 83 kts 70°
2026-05-07 23:31 -37.01226 174.78538 33 ft 142 kts 70°
2026-05-07 23:31 -37.00868 174.79890 127 ft 181 kts 69°
2026-05-07 23:31 -37.00497 174.81398 874 ft 180 kts 74°
2026-05-07 23:31 -37.00742 174.82939 1691 ft 192 kts 116°
2026-05-07 23:32 -37.01819 174.84021 2216 ft 214 kts 157°
2026-05-07 23:32 -37.03369 174.84090 2582 ft 236 kts 188°
2026-05-07 23:32 -37.05023 174.83656 3071 ft 249 kts 194°
2026-05-07 23:32 -37.06740 174.83148 3638 ft 258 kts 194°
2026-05-07 23:33 -37.08500 174.82662 3935 ft 260 kts 192°
2026-05-07 23:33 -37.10263 174.82219 3967 ft 259 kts 192°
2026-05-07 23:33 -37.12038 174.81799 3980 ft 260 kts 191°
2026-05-07 23:33 -37.13819 174.81358 3993 ft 263 kts 195°
2026-05-07 23:34 -37.15615 174.80708 4143 ft 277 kts 199°
2026-05-07 23:34 -37.17522 174.79942 4695 ft 296 kts 200°
2026-05-07 23:34 -37.19495 174.79140 5626 ft 301 kts 200°
2026-05-07 23:34 -37.21491 174.78333 6677 ft 301 kts 200°
2026-05-07 23:35 -37.23491 174.77525 7671 ft 303 kts 201°
2026-05-07 23:35 -37.25509 174.76709 8616 ft 308 kts 201°
2026-05-07 23:35 -37.27559 174.75880 9551 ft 312 kts 201°
2026-05-07 23:35 -37.29615 174.75048 10423 ft 318 kts 201°
2026-05-07 23:36 -37.31772 174.74176 11019 ft 334 kts 201°
2026-05-07 23:36 -37.34048 174.73251 11521 ft 352 kts 201°
2026-05-07 23:36 -37.36440 174.72281 12028 ft 371 kts 201°
2026-05-07 23:36 -37.38952 174.71263 12502 ft 389 kts 201°
2026-05-07 23:37 -37.41590 174.70196 13013 ft 405 kts 201°
2026-05-07 23:37 -37.44296 174.69104 13813 ft 412 kts 201°
2026-05-07 23:37 -37.47039 174.67996 14616 ft 416 kts 201°
2026-05-07 23:37 -37.49809 174.66873 15405 ft 420 kts 201°
2026-05-07 23:38 -37.52623 174.65730 16253 ft 424 kts 201°
2026-05-07 23:38 -37.54525 174.64958 16802 ft 426 kts 201°
2026-05-07 23:38 -37.57366 174.63848 17646 ft 431 kts 199°
2026-05-07 23:38 -37.60280 174.62889 18448 ft 435 kts 197°
2026-05-07 23:39 -37.63196 174.61985 19115 ft 440 kts 197°
2026-05-07 23:39 -37.66216 174.61060 19782 ft 443 kts 197°
2026-05-07 23:39 -37.69175 174.60150 20438 ft 447 kts 197°
2026-05-07 23:39 -37.72248 174.59199 21151 ft 450 kts 197°
2026-05-07 23:40 -37.75261 174.58262 21856 ft 453 kts 198°
2026-05-07 23:40 -37.78333 174.57305 22557 ft 456 kts 198°
2026-05-07 23:40 -37.81427 174.56337 23242 ft 460 kts 198°
2026-05-07 23:40 -37.84541 174.55360 23877 ft 463 kts 198°
2026-05-07 23:41 -37.87683 174.54373 24433 ft 467 kts 198°
2026-05-07 23:41 -37.90847 174.53381 25006 ft 470 kts 198°
2026-05-07 23:41 -37.94087 174.52365 25515 ft 475 kts 198°
2026-05-07 23:41 -37.97259 174.51368 26013 ft 479 kts 199°
2026-05-07 23:42 -38.00509 174.50351 26571 ft 482 kts 199°
2026-05-07 23:42 -38.03772 174.49331 27125 ft 485 kts 199°
2026-05-07 23:42 -38.07053 174.48303 27692 ft 488 kts 199°
2026-05-07 23:42 -38.10364 174.47264 28237 ft 490 kts 199°
2026-05-07 23:43 -38.13680 174.46223 28815 ft 492 kts 200°
2026-05-07 23:43 -38.16996 174.45181 29582 ft 489 kts 200°
2026-05-07 23:43 -38.20275 174.44152 30393 ft 485 kts 200°
2026-05-07 23:43 -38.23539 174.43123 31088 ft 482 kts 201°
2026-05-07 23:44 -38.26786 174.42094 31706 ft 481 kts 201°
2026-05-07 23:44 -38.30026 174.41063 32278 ft 481 kts 201°
2026-05-07 23:44 -38.33259 174.40034 32821 ft 480 kts 201°
2026-05-07 23:44 -38.36500 174.39003 33393 ft 480 kts 201°
2026-05-07 23:45 -38.39718 174.37980 33957 ft 479 kts 201°
2026-05-07 23:45 -38.42929 174.36958 34451 ft 478 kts 201°
2026-05-07 23:45 -38.46155 174.35928 34930 ft 477 kts 201°
2026-05-07 23:45 -38.49380 174.34898 35435 ft 476 kts 201°
2026-05-07 23:46 -38.52580 174.33876 35944 ft 474 kts 201°
2026-05-07 23:46 -38.55776 174.32857 36411 ft 473 kts 201°
2026-05-07 23:46 -38.58970 174.31835 36795 ft 473 kts 201°
2026-05-07 23:46 -38.62163 174.30813 37118 ft 474 kts 201°
2026-05-07 23:47 -38.65369 174.29785 37422 ft 476 kts 200°
2026-05-07 23:47 -38.68587 174.28754 37755 ft 477 kts 200°
2026-05-07 23:47 -38.71811 174.27722 37904 ft 479 kts 200°
2026-05-07 23:47 -38.75046 174.26686 37902 ft 479 kts 200°
2026-05-07 23:48 -38.81524 174.24604 37906 ft 481 kts 200°
2026-05-07 23:48 -38.88034 174.22510 37903 ft 482 kts 200°
2026-05-07 23:49 -38.94537 174.20411 37889 ft 482 kts 200°
2026-05-07 23:49 -39.01016 174.18267 37873 ft 480 kts 202°
2026-05-07 23:50 -39.07384 174.15737 37889 ft 478 kts 204°
2026-05-07 23:50 -39.13732 174.13130 37890 ft 478 kts 204°
2026-05-07 23:51 -39.20077 174.10527 37860 ft 478 kts 204°
2026-05-07 23:51 -39.26443 174.07919 37861 ft 482 kts 205°
2026-05-07 23:52 -39.32781 174.05307 37865 ft 482 kts 205°
2026-05-07 23:52 -39.39177 174.02673 37859 ft 483 kts 205°
2026-05-07 23:53 -39.45573 174.00031 37867 ft 483 kts 204°
2026-05-07 23:53 -39.51975 173.97389 37836 ft 484 kts 204°
2026-05-07 23:54 -39.58388 173.94743 37837 ft 484 kts 204°
2026-05-07 23:54 -39.64781 173.92096 37864 ft 484 kts 204°
2026-05-07 23:55 -39.71190 173.89434 37833 ft 485 kts 204°
2026-05-07 23:55 -39.77609 173.86762 37812 ft 485 kts 204°
2026-05-07 23:56 -39.84015 173.84090 37806 ft 485 kts 204°
2026-05-07 23:56 -39.90449 173.81406 37818 ft 486 kts 204°
2026-05-07 23:57 -39.96883 173.78718 37814 ft 486 kts 204°
2026-05-07 23:57 -40.03313 173.76023 37808 ft 486 kts 204°
2026-05-07 23:58 -40.09754 173.73319 37832 ft 487 kts 205°
2026-05-07 23:58 -40.16170 173.70619 37807 ft 488 kts 205°
2026-05-07 23:59 -40.22629 173.67893 37803 ft 489 kts 205°
2026-05-07 23:59 -40.29101 173.65157 37800 ft 489 kts 205°
2026-05-08 00:00 -40.35564 173.62420 37801 ft 489 kts 205°
2026-05-08 00:00 -40.42012 173.59688 37796 ft 489 kts 205°
2026-05-08 00:01 -40.48492 173.56935 37791 ft 489 kts 205°
2026-05-08 00:01 -40.54965 173.54178 37790 ft 489 kts 205°
2026-05-08 00:02 -40.61439 173.51415 37800 ft 489 kts 205°
2026-05-08 00:02 -40.67917 173.48643 37792 ft 489 kts 205°
2026-05-08 00:03 -40.74392 173.45870 37793 ft 489 kts 205°
2026-05-08 00:03 -40.80863 173.43090 37779 ft 489 kts 205°
2026-05-08 00:04 -40.87334 173.40309 37778 ft 489 kts 205°
2026-05-08 00:04 -40.93807 173.37522 37778 ft 489 kts 205°
2026-05-08 00:05 -41.00272 173.34726 37777 ft 489 kts 205°
2026-05-08 00:05 -41.06734 173.31930 37775 ft 488 kts 205°
2026-05-08 00:06 -41.13199 173.29126 37762 ft 488 kts 205°
2026-05-08 00:06 -41.19614 173.26335 37773 ft 490 kts 205°
2026-05-08 00:07 -41.26113 173.23500 37754 ft 491 kts 205°
2026-05-08 00:07 -41.32636 173.20751 37752 ft 493 kts 203°
2026-05-08 00:08 -41.39224 173.18229 37758 ft 493 kts 202°
2026-05-08 00:08 -41.42516 173.16978 37462 ft 491 kts 202°
2026-05-08 00:08 -41.45823 173.15717 36479 ft 498 kts 202°
2026-05-08 00:09 -41.49192 173.14422 35468 ft 508 kts 202°
2026-05-08 00:09 -41.52611 173.13109 34710 ft 512 kts 202°
2026-05-08 00:09 -41.56032 173.11796 34073 ft 512 kts 202°
2026-05-08 00:09 -41.59465 173.10475 33377 ft 513 kts 202°
2026-05-08 00:10 -41.62895 173.09151 32609 ft 514 kts 202°
2026-05-08 00:10 -41.66338 173.07821 31821 ft 515 kts 202°
2026-05-08 00:10 -41.69784 173.06488 31076 ft 517 kts 202°
2026-05-08 00:10 -41.73243 173.05150 30316 ft 518 kts 201°
2026-05-08 00:11 -41.76711 173.03805 29378 ft 519 kts 201°
2026-05-08 00:11 -41.80180 173.02455 28439 ft 521 kts 201°
2026-05-08 00:11 -41.83666 173.01100 27664 ft 520 kts 201°
2026-05-08 00:11 -41.87114 172.99762 27120 ft 514 kts 201°
2026-05-08 00:12 -41.90530 172.98437 26619 ft 507 kts 201°
2026-05-08 00:12 -41.93892 172.97130 26088 ft 502 kts 201°
2026-05-08 00:12 -41.97228 172.95830 25583 ft 496 kts 201°
2026-05-08 00:12 -42.00529 172.94539 24960 ft 494 kts 201°
2026-05-08 00:13 -42.03818 172.93251 24421 ft 490 kts 200°
2026-05-08 00:13 -42.07081 172.91971 23875 ft 487 kts 201°
2026-05-08 00:13 -42.10320 172.90703 23292 ft 483 kts 201°
2026-05-08 00:13 -42.13543 172.89441 22535 ft 480 kts 201°
2026-05-08 00:14 -42.16709 172.88199 21866 ft 476 kts 201°
2026-05-08 00:14 -42.19576 172.87072 21341 ft 473 kts 201°
2026-05-08 00:14 -42.22405 172.85956 20779 ft 470 kts 201°
2026-05-08 00:14 -42.25537 172.84722 20195 ft 467 kts 201°
2026-05-08 00:15 -42.28650 172.83495 19628 ft 464 kts 201°
2026-05-08 00:15 -42.31741 172.82274 19037 ft 461 kts 201°
2026-05-08 00:15 -42.34808 172.81063 18475 ft 458 kts 201°
2026-05-08 00:15 -42.37853 172.79859 17909 ft 455 kts 201°
2026-05-08 00:16 -42.40877 172.78661 17328 ft 451 kts 201°
2026-05-08 00:16 -42.43874 172.77473 16769 ft 447 kts 201°
2026-05-08 00:16 -42.46851 172.76294 16205 ft 444 kts 201°
2026-05-08 00:16 -42.49723 172.75151 15596 ft 441 kts 201°
2026-05-08 00:17 -42.52426 172.74075 15126 ft 437 kts 201°
2026-05-08 00:17 -42.55321 172.72923 14654 ft 434 kts 201°
2026-05-08 00:17 -42.58207 172.71775 14168 ft 430 kts 202°
2026-05-08 00:17 -42.61045 172.70642 13673 ft 427 kts 202°
2026-05-08 00:18 -42.63862 172.69519 13175 ft 423 kts 202°
2026-05-08 00:18 -42.66675 172.68394 12702 ft 418 kts 202°
2026-05-08 00:18 -42.69454 172.67281 12227 ft 414 kts 202°
2026-05-08 00:18 -42.72203 172.66176 11781 ft 411 kts 202°
2026-05-08 00:19 -42.74936 172.65079 11330 ft 407 kts 201°
2026-05-08 00:19 -42.77647 172.63991 10913 ft 405 kts 202°
2026-05-08 00:19 -42.80320 172.62924 10706 ft 394 kts 202°
2026-05-08 00:19 -42.82900 172.61895 10596 ft 380 kts 202°
2026-05-08 00:20 -42.85392 172.60896 10458 ft 367 kts 202°
2026-05-08 00:20 -42.87811 172.59916 10272 ft 357 kts 203°
2026-05-08 00:20 -42.90162 172.58958 10099 ft 348 kts 203°
2026-05-08 00:20 -42.92458 172.58023 9855 ft 341 kts 203°
2026-05-08 00:21 -42.94698 172.57108 9704 ft 331 kts 203°
2026-05-08 00:21 -42.96876 172.56221 9574 ft 322 kts 204°
2026-05-08 00:21 -42.99027 172.55339 9561 ft 324 kts 204°
2026-05-08 00:21 -43.01181 172.54456 9555 ft 323 kts 204°
2026-05-08 00:22 -43.03327 172.53577 9551 ft 321 kts 204°
2026-05-08 00:22 -43.05453 172.52708 9293 ft 317 kts 204°
2026-05-08 00:22 -43.07561 172.51842 8798 ft 318 kts 204°
2026-05-08 00:22 -43.09679 172.50973 8351 ft 316 kts 203°
2026-05-08 00:23 -43.11774 172.50115 8048 ft 313 kts 203°
2026-05-08 00:23 -43.13854 172.49263 7664 ft 312 kts 203°
2026-05-08 00:23 -43.15944 172.48406 7304 ft 310 kts 202°
2026-05-08 00:23 -43.18004 172.47563 6953 ft 308 kts 202°
2026-05-08 00:24 -43.20066 172.46712 6619 ft 305 kts 202°
2026-05-08 00:24 -43.22093 172.45879 6277 ft 303 kts 202°
2026-05-08 00:24 -43.23429 172.45331 6045 ft 302 kts 201°
2026-05-08 00:24 -43.25436 172.44508 5726 ft 299 kts 201°
2026-05-08 00:25 -43.27407 172.43694 5401 ft 295 kts 201°
2026-05-08 00:25 -43.29366 172.42888 5125 ft 292 kts 201°
2026-05-08 00:25 -43.31295 172.42094 4873 ft 286 kts 200°
2026-05-08 00:25 -43.33184 172.41315 4663 ft 281 kts 200°
2026-05-08 00:26 -43.35036 172.40554 4450 ft 275 kts 200°
2026-05-08 00:26 -43.36854 172.39804 4221 ft 270 kts 200°
2026-05-08 00:26 -43.38639 172.39067 4015 ft 265 kts 200°
2026-05-08 00:26 -43.40428 172.38564 3800 ft 262 kts 185°
2026-05-08 00:27 -43.42236 172.38577 3593 ft 257 kts 178°
2026-05-08 00:27 -43.43985 172.38718 3528 ft 246 kts 177°
2026-05-08 00:27 -43.45655 172.38868 3540 ft 233 kts 178°
2026-05-08 00:27 -43.47206 172.38992 3541 ft 214 kts 178°
2026-05-08 00:28 -43.48625 172.39091 3492 ft 195 kts 178°
2026-05-08 00:28 -43.49963 172.39218 3492 ft 189 kts 170°
2026-05-08 00:28 -43.51177 172.39716 3381 ft 177 kts 153°
2026-05-08 00:28 -43.52214 172.40623 3005 ft 175 kts 134°
2026-05-08 00:29 -43.52992 172.41859 2649 ft 168 kts 117°
2026-05-08 00:29 -43.53484 172.43271 2315 ft 160 kts 102°
2026-05-08 00:29 -43.53697 172.44745 1978 ft 154 kts 88°
2026-05-08 00:29 -43.53646 172.46178 1648 ft 147 kts 73°
2026-05-08 00:30 -43.53332 172.47500 1236 ft 144 kts 59°
2026-05-08 00:30 -43.52797 172.48612 822 ft 140 kts 46°
2026-05-08 00:30 -43.52137 172.49479 620 ft 131 kts 39°
2026-05-08 00:30 -43.51398 172.50298 592 ft 141 kts 40°
2026-05-08 00:31 -43.50663 172.51158 411 ft 143 kts 39°
2026-05-08 00:31 -43.49925 172.52012 222 ft 141 kts 39°
2026-05-08 00:31 -43.49208 172.52834 124 ft 133 kts 40°
2026-05-08 00:31 -43.48652 172.53486 120 ft 73 kts 40°
2026-05-08 00:32 -43.48485 172.53781 118 ft 28 kts 68°
2026-05-08 00:32 -43.48487 172.54024 111 ft 25 kts 116°
2026-05-08 00:32 -43.48551 172.54144 111 ft 0 kts 130°
2026-05-08 00:33 -43.48561 172.54161 111 ft 7 kts 130°
2026-05-08 00:33 -43.48609 172.54238 113 ft 13 kts 132°
2026-05-08 00:33 -43.48679 172.54344 111 ft 17 kts 131°
2026-05-08 00:33 -43.48703 172.54477 112 ft 16 kts 41°
2026-05-08 00:34 -43.48684 172.54510 112 ft 5 kts 91°
2026-05-08 00:34 -43.48714 172.54532 107 ft 6 kts 193°
2026-05-08 00:34 -43.48722 172.54524 109 ft 1 kts 231°
2026-05-08 00:34 -43.48723 172.54520 110 ft 0 kts 243°